Вернуться в каталог

THOR ABLESTAR DEB *

АктивенLEO
NORAD 48812·DEBRIS·🇺🇸 United States

Запущен Jun 29, 1961 с Cape Canaveral Space Force Station

Loading…

Ближайшие Пролёты (ближайшие 24 часа)

TLE

СвежийSource: Space-Track

Эпоха: Sep 13, 2026, 07:23 UTC

1 48812U 61015MQ  26256.30814679  .00000275  00000-0  18500-2 0  9995
2 48812  67.3190  11.2375 0353774 314.6543  42.6116 12.43852667584084

Отслеживайте THOR ABLESTAR DEB * в реальном времени с AllMySat

Download on the App Store